HST 1 20580U 90037B 26105.21468105 .00003558 00000+0 11128-3 0 9991 2 20580 28.4728 150.7274 0002221 160.8426 199.2254 15.30050291778918 POLAR 1 23802U 96013A 26104.87863964 .00000101 00000+0 00000+0 0 9998 2 23802 79.7912 227.7821 6406915 211.2443 86.1094 1.29845767144038 SWAS 1 25560U 98071A 26105.19128180 .00002182 00000+0 14356-3 0 9991 2 25560 69.8976 29.9178 0006688 322.6469 37.4229 15.09183335487768 CXO 1 25867U 99040B 26105.90737653 .00000932 00000+0 00000+0 0 9996 2 25867 55.1609 118.4976 7943121 310.5395 0.1381 0.37807016 17086 XMM-NEWTON 1 25989U 99066A 26105.52041533 .00000139 00000+0 00000+0 0 9991 2 25989 64.8079 283.7888 4696661 66.0314 0.0348 0.50125345 22690 TERRA 1 25994U 99068A 26105.28678472 .00000206 00000+0 50944-4 0 9992 2 25994 97.9520 157.3094 0003586 77.6947 344.7317 14.61052896400425 CLUSTER II-FM7 (SAMBA) 1 26410U 00041A 26103.42847287 .00002693 00000+0 00000+0 0 9990 2 26410 149.4965 39.9054 8971645 256.3507 0.6187 0.44801462 20015 CLUSTER II-FM8 (TANGO) 1 26464U 00045B 26105.37029088 .00002607 00000+0 00000+0 0 9995 2 26464 149.8154 41.2510 8981499 257.5394 0.5870 0.44407628 20010 ODIN 1 26702U 01007A 26105.08603843 .00031732 00000+0 36061-3 0 9995 2 26702 97.3997 142.7094 0003518 64.6777 295.4845 15.62264616379515 TIMED 1 26998U 01055B 26105.11423094 .00000760 00000+0 72859-4 0 9990 2 26998 74.0697 2.0035 0002238 227.3698 132.7298 14.95147997321397 CORIOLIS 1 27640U 03001A 26105.27159926 .00000075 00000+0 55962-4 0 9990 2 27640 98.7152 113.1127 0014702 38.1781 322.0434 14.19926816205294 SORCE 1 27651U 03004A 26104.83959992 .00001711 00000+0 13439-3 0 9997 2 27651 39.9905 263.0017 0018198 314.5014 45.4292 15.03368318262365 MOST 1 27843U 03031D 26105.27635062 .00000038 00000+0 37452-4 0 9991 2 27843 98.7072 113.8755 0010967 75.9910 284.2486 14.21309210181774 SCISAT 1 1 27858U 03036A 26104.94886417 .00000348 00000+0 49249-4 0 9998 2 27858 73.9287 296.9838 0006949 6.0704 354.0555 14.81374574222083 SWIFT 1 28485U 04047A 26104.90685175 .00030434 00000+0 31420-3 0 9992 2 28485 20.5538 310.8703 0002330 129.3685 230.6966 15.62746748176934 HINODE (SOLAR-B) 1 29479U 06041A 26105.29768507 .00000325 00000+0 64287-4 0 9990 2 29479 98.0591 122.3709 0018723 125.2028 235.0934 14.68532588 45645 SHIJIAN-6 02A (SJ-6 02A) 1 29505U 06046A 26105.34453939 .00001256 00000+0 68539-4 0 9999 2 29505 97.6432 145.9541 0003338 28.7798 331.3618 15.16234083 62748 SHIJIAN-6 02B (SJ-6 02B) 1 29506U 06046B 26105.29415065 .00001267 00000+0 10345-3 0 9995 2 29506 97.7126 134.7542 0011451 280.8212 79.1723 15.01177004 61302 FGRST (GLAST) 1 33053U 08029A 26105.16571707 .00002100 00000+0 71667-4 0 9994 2 33053 25.5824 281.9555 0007851 305.7538 54.2269 15.23605325986215 SDO 1 36395U 10005A 26102.41844348 -.00000038 00000+0 00000+0 0 9999 2 36395 34.5141 87.3349 0000480 33.1705 128.9991 1.00273674 59408 CRYOSAT 2 1 36508U 10013A 26105.29530755 .00000066 00000+0 15712-4 0 9998 2 36508 92.0271 262.0432 0002564 95.6828 264.4671 14.51902559848954 X-SAT 1 37389U 11015C 26105.25082903 .00000104 00000+0 61888-4 0 9990 2 37389 98.3470 85.2883 0014191 162.8248 197.3415 14.25187654778717 GCOM-W1 (SHIZUKU) 1 38337U 12025A 26105.28684123 .00000254 00000+0 66303-4 0 9994 2 38337 98.2098 46.8111 0001125 83.2269 73.0709 14.57149398739873 NUSTAR 1 38358U 12031A 26105.25002315 .00002735 00000+0 11820-3 0 9997 2 38358 6.0247 146.0113 0008837 253.8811 195.6229 15.08192300 2801 NEOSSAT 1 39089U 13009D 26105.07310230 .00000122 00000+0 56715-4 0 9994 2 39089 98.4164 286.6094 0012177 76.4794 283.7749 14.35804058687686 BRITE-AUSTRIA 1 39091U 13009F 26105.24235236 .00000098 00000+0 47928-4 0 9996 2 39091 98.3981 286.2395 0011323 70.7731 289.4680 14.36516441688017 IRIS 1 39197U 13033A 26105.06341298 .00000698 00000+0 86332-4 0 9994 2 39197 97.9377 304.5279 0024868 162.4787 197.7292 14.85753289691001 HISAKI (SPRINT-A) 1 39253U 13049A 26105.15866301 .00000129 00000+0 83035-4 0 9997 2 39253 29.7189 180.4495 0136560 225.9239 133.0019 13.55536248622867 CASSIOPE 1 39265U 13055A 26105.21701654 .00015686 -45343-6 18397-3 0 9992 2 39265 80.9150 142.9341 0304589 273.7993 82.8466 15.21304305658088 STSAT-3 1 39422U 13066G 26105.24725388 .00001985 00000+0 15439-3 0 9996 2 39422 97.6173 76.2010 0008056 237.6579 122.3866 15.02398752674758 SWARM B 1 39451U 13067A 26105.27761365 .00002061 00000+0 73768-4 0 9993 2 39451 87.7493 1.4117 0002438 79.3566 280.7958 15.28182059673634 SWARM A 1 39452U 13067B 26105.15443010 .00006301 00000+0 11314-3 0 9994 2 39452 87.3292 79.6303 0003687 93.0766 267.0916 15.49640079696488 SWARM C 1 39453U 13067C 26105.15437178 .00006359 00000+0 11421-3 0 9995 2 39453 87.3292 78.2113 0003709 93.2890 266.8795 15.49638971696444 BRITE-CA1 (TORONTO) 1 40020U 14033L 26105.32324715 .00000612 00000+0 99416-4 0 9999 2 40020 97.9635 235.4495 0079994 117.8283 243.1060 14.72577892632961 OCO 2 1 40059U 14035A 26105.18515056 .00000224 00000+0 59704-4 0 9992 2 40059 98.1977 47.4539 0001649 85.5468 274.5919 14.57137008626871 BRITE-PL2 (HEWELIUSZ) 1 40119U 14049B 26105.30197536 .00000926 00000+0 91510-4 0 9997 2 40119 97.9019 216.8550 0013100 322.4937 37.5368 14.94359449632054 MMS 1 1 40482U 15011A 26105.33335648 -.00000618 00000+0 00000+0 0 9999 2 40482 71.4852 349.5893 8388180 166.2482 6.3983 0.28185355 1325 MMS 2 1 40483U 15011B 26105.25002315 -.00000627 00000+0 00000+0 0 9993 2 40483 71.4860 349.5866 8392899 166.2320 357.9338 0.28132332 1324 MMS 3 1 40484U 15011C 26105.33335648 -.00000618 00000+0 00000+0 0 9991 2 40484 71.4881 349.5960 8388196 166.2485 6.3874 0.28184800 1327 MMS 4 1 40485U 15011D 26105.33335648 -.00000618 00000+0 00000+0 0 9992 2 40485 71.4851 349.5920 8387420 166.2564 6.3762 0.28190399 1324 ASTROSAT 1 40930U 15052A 26104.04458961 .00001376 00000+0 86080-4 0 9991 2 40930 5.9972 257.0249 0008113 202.9651 157.0114 14.82393548570296 DAMPE 1 41173U 15078A 26105.28092810 .00000502 00000+0 19565-4 0 9997 2 41173 97.4579 110.4426 0010663 305.4089 54.6155 15.30625888574921 PISAT 1 41784U 16059B 26105.27103080 .00000599 00000+0 10991-3 0 9995 2 41784 97.8192 108.4321 0030193 48.6703 311.7094 14.68866737510507 HXMT (HUIYAN) 1 42758U 17034A 26105.30356654 .00002276 00000+0 12069-3 0 9994 2 42758 43.0132 173.0386 0030389 106.9602 253.4581 15.17927770488101 FLYING LAPTOP 1 42831U 17042G 26105.31861909 .00001625 00000+0 13218-3 0 9994 2 42831 97.4400 263.3966 0019032 340.1047 19.9433 15.00757348477022 ZHANGHENG 1-01 (CSES-1) 1 43194U 18015C 26105.30286899 .00004036 00000+0 18385-3 0 9995 2 43194 97.6808 269.7316 0019052 113.2195 247.1048 15.21119084455084 SALSAT 1 46495U 20068K 26105.26708578 .00004087 00000+0 14851-3 0 9991 2 46495 97.8862 104.5486 0010709 153.9105 206.2675 15.28870140305742 IXPE 1 49954U 21121A 26105.33335648 .00006077 00000+0 31132-3 0 9999 2 49954 0.2300 72.1308 0007583 207.7176 216.0596 15.09663995 5740